User: anonymous   Login
Location: Elbart
(49.6135°N, 11.9134°E)
Time: 00:25:13
(UTC+00:00)
Language:

SL-08 R/B - Orbit

View from above orbital plane
View from above orbital plane
View from above satellite
View from above satellite

Ground track
Ground track

The orbit data is extracted from the following two-line orbital elements,

1 27819U 03023B   20188.49504887 +.00000051 +00000-0 +37249-4 0  9994
2 27819 082.9485 280.2098 0046130 193.3560 177.5665 13.74227362856929
Epoch (UTC): 06 July 2020 11:52:52
Eccentricity: 0.0046130
inclination: 82.9485°
perigee height: 950 km
apogee height: 1018 km
right ascension of ascending node: 280.2098°
argument of perigee: 193.3560°
revolutions per day: 13.74227362
mean anomaly at epoch: 177.5665°
orbit number at epoch: 85692

The dashed part of the orbit path shows where the satellite is in the earth's shadow,  

DLR